Regional Weather Roundup
Issued by NWS

Home | Current Version | Previous Version | Text Only | Print | Product List | Glossary Off
Versions: 1 2 3 4 5 6 7 8 9 10 11 12 13 14 15 16 17 18 19 20 21 22 23 24 25 26 27 28

000
ASUS45 KTFX 170210
RWRMT
MONTANA REGIONAL WEATHER ROUNDUP
NATIONAL WEATHER SERVICE GREAT FALLS MT
800 PM MDT WED AUG 16 2017

NOTE: "FAIR" INDICATES FEW OR NO CLOUDS BELOW 12000 FEET WITH NO
SIGNIFICANT WEATHER AND/OR OBSTRUCTIONS TO VISIBILITY.

MTZ001>007-043-170300-
WEST OF THE DIVIDE

CITY           SKY/WX    TMP DP  RH WIND       PRES   REMARKS
KALISPELL      CLEAR     78  41  26 S7        29.89S
MISSOULA       CLEAR     80  35  19 W9        29.94R
BUTTE          CLEAR     75  30  19 NW10      30.05S
MULLAN PASS    CLEAR     63  35  35 VRB5      30.13S
ANACONDA         N/A     75  28  17 W12G20    30.01S
DEER LODGE       N/A     72  30  21 NW13      30.03R
EUREKA           N/A     81  37  21 MISG      29.89S
HAMILTON         N/A     79  34  19 CALM      29.96S
LIBBY            N/A     81  36  19 NW5       29.90R
RONAN            N/A     80  39  23 SW2       29.98S
$$

MTZ008-052>055-170300-
SOUTHWEST MONTANA

CITY           SKY/WX    TMP DP  RH WIND       PRES   REMARKS
BOZEMAN        CLOUDY    78  42  27 CALM      29.95S
DILLON         CLEAR     70  41  34 W7        29.99S
W YELLOWSTONE  MOCLDY    66  34  30 SW6       30.14S
ENNIS          CLOUDY    75  39  27 SW8       30.06S
THREE FORKS      N/A     79  39  23 N1        29.95R
$$

MTZ009-010-012-014-046-048-049-054-170300-
EAST SLOPES AND CENTRAL MONTANA

CITY           SKY/WX    TMP DP  RH WIND       PRES   REMARKS
CUT BANK       CLEAR     74  37  26 W9        29.91S
GREAT FALLS    CLEAR     78  26  14 CALM      29.91R
MALMSTROM AFB  CLEAR     80  28  14 W3        29.90S
HELENA         MOCLDY    79  31  17 W13G21    29.94R
AUGUSTA          N/A     76  23  13 W10       29.95S
BOWMANS CRNR     N/A     73  28  19 W9        29.93
CHOTEAU          N/A     75  32  20 NW8       29.94S
FAIRFIELD        N/A     77  25  14 N3        29.91S
POWER            N/A     74  26  17 N5        29.91S
RAYNESFORD       N/A     76  26  15 W3        29.93S
ULM              N/A     74  27  17 W5        29.91R
$$

MTZ011-013-016-021-045-047-050-051-170300-
NORTH CENTRAL MONTANA

CITY           SKY/WX    TMP DP  RH WIND       PRES   REMARKS
HAVRE          CLOUDY    82  33  17 NW5       29.83S
LEWISTOWN      PTCLDY    75  31  19 N5        29.94R
N BAR RANCH      N/A     72  27  18 W5        29.98S
CHINOOK          N/A     79  41  25 W5        29.82S
DENTON           N/A     76  26  16 NW7       29.88R
GEYSER           N/A     76  26  16 N8        29.93R
GRASS RANGE      N/A     76  28  17 N6        29.89R
JUDITH GAP       N/A     71  32  23 N8        29.97
WINIFRED         N/A     78  26  14 N9        29.90S
$$

MTZ017>020-022>027-061-062-170300-
NORTHEAST MONTANA

CITY           SKY/WX    TMP DP  RH WIND       PRES   REMARKS
GLASGOW        MOCLDY    79  44  28 CALM      29.80R
JORDAN           N/A     78  28  16 NW6       29.82S
SIDNEY         CLEAR     75  53  46 SE7       29.84S
WOLF POINT     CLEAR     79  44  28 E9        29.80S
MALTA          CLEAR     81  32  17 N6        29.81S
PLENTYWOOD       N/A     77  48  36 CALM      29.85S
POPLAR           N/A     79  50  36 E6        29.82R
$$

MTZ028>42-056>058-170300-
SOUTHCENTRAL AND SOUTHEAST MONTANA

CITY           SKY/WX    TMP DP  RH WIND       PRES   REMARKS
BAKER          CLOUDY    72  47  40 SE8       29.91F
BILLINGS       CLOUDY    81  40  23 SW7       29.89S
LIVINGSTON     CLEAR     76  41  28 SW12      29.95S
MILES CITY     CLEAR     82  37  20 SE10      29.82F
BIG TIMBER     CLEAR     75  43  31 SW12      29.98S
FORSYTH          N/A     86  34  15 CALM      29.82S
HARLOWTON        N/A     78  27  15 MISG      29.94S
LAUREL           N/A     79  42  26 S5        29.91R
$$

REGIONAL REPORTS...DAKOTAS

CITY           SKY/WX    TMP DP  RH WIND       PRES   REMARKS
WILLISTON      MOCLDY    76  55  48 SE9       29.86S
MINOT          CLEAR     69  53  56 E6        29.88F
DICKINSON      CLEAR     68  55  63 E8        29.91S
BEACH            N/A     72  48  43 SE9       29.93S
CROSBY           N/A     68  54  60 SE7       29.87S
TIOGA            N/A     66  54  63 SE9       29.90F
WATFORD CITY     N/A     70  55  60 SE8       29.87F
BISMARCK       PTCLDY    70  56  61 N6        29.89F
GRAND FORKS    CLOUDY    65  64  97 N7        29.82S
FARGO          CLOUDY    66  65  96 N13       29.79F
BUFFALO SD       N/A     73  51  46 E7        29.88F
RAPID CITY     CLEAR     68  50  52 E7        29.98S
$$

REGIONAL REPORTS...WYOMING/IDAHO/WASHINGTON

CITY           SKY/WX    TMP DP  RH WIND       PRES   REMARKS
GILLETTE       CLEAR     71  37  28 SE9       29.99S
SHERIDAN       CLOUDY    69  46  43 SW7       29.95S
BUFFALO WY     PTCLDY    71  39  31 SW5       30.03S
CODY           CLEAR     71  43  36 CALM      30.04R
YELLOWSTONE LA   N/A     57  34  41 CALM      30.25R
IDAHO FALLS    CLEAR     78  37  22 S9        30.01F
SALMON         CLEAR     75  55  49 W5        29.93S
BOISE          CLEAR     85  34  16 N9        29.94S
SPOKANE        PTCLDY    81  39  22 SW13      29.93F
$$

REGIONAL REPORTS...ALBERTA

CITY           SKY/WX    TMP DP  RH WIND       PRES   REMARKS
EDMONTON       MOCLDY    66  55  68 W3        29.85R SMOKE
CALGARY        MOCLDY    73  41  31 N7        29.87R
LETHBRIDGE     MOCLDY    77  39  25 W10       29.83S
MEDICINE HAT   MOCLDY    77  39  25 N3        29.82S
$$

REGIONAL REPORTS...SASKATCHEWAN

CITY           SKY/WX    TMP DP  RH WIND       PRES   REMARKS
SWIFT CURRENT  CLEAR     70  43  37 E12G17    29.84R
REGINA         MOCLDY    72  41  33 NE9       29.86R
SASKATOON      PTCLDY    64  48  55 E7        29.86F
$$




USA.gov is the U.S. government's official web portal to all federal, state and local government web resources and services.